• In Czech Republic
  • List of Countries
  • For 7 days
  • Water Temperature
  • Satellite Maps
  • Weather Map
  • Weather Widgets
  • user-avatar
    Login

    Hourly Weather Whitley Bay

    Today, 22 November, Wednesday

    Time Temperature Precipitation Wind Pressure Humidity
    00:00 +11°C° 0 mm 9 mps 743 mmHg 82%
    01:00 +11°C° 0 mm 9 mps 743 mmHg 82%
    02:00 +10°C° 0 mm 8 mps 743 mmHg 82%
    03:00 +10°C° 0 mm 8 mps 743 mmHg 83%
    04:00 +10°C° 0.1 mm 7 mps 742 mmHg 84%
    05:00 +9°C° 0.1 mm 6 mps 742 mmHg 85%
    06:00 +9°C° 0.1 mm 5 mps 741 mmHg 86%
    07:00 +9°C° 0.7 mm 5 mps 741 mmHg 87%
    08:00 +11°C° 0.7 mm 4 mps 740 mmHg 88%
    09:00 +11°C° 0.7 mm 4 mps 739 mmHg 88%
    10:00 +12°C° 1.9 mm 5 mps 738 mmHg 87%
    11:00 +11°C° 1.9 mm 6 mps 737 mmHg 86%
    12:00 +12°C° 1.9 mm 7 mps 736 mmHg 84%
    13:00 +12°C° 1 mm 7 mps 736 mmHg 84%
    14:00 +12°C° 1 mm 7 mps 735 mmHg 84%
    15:00 +12°C° 1 mm 7 mps 734 mmHg 84%
    16:00 +12°C° 1.7 mm 7 mps 734 mmHg 85%
    17:00 +12°C° 1.7 mm 7 mps 733 mmHg 85%
    18:00 +12°C° 1.7 mm 7 mps 733 mmHg 86%
    19:00 +11°C° 1 mm 7 mps 732 mmHg 87%
    20:00 +11°C° 1 mm 7 mps 732 mmHg 88%
    21:00 +11°C° 1 mm 6 mps 731 mmHg 89%
    22:00 +11°C° 0.9 mm 6 mps 731 mmHg 88%
    23:00 +10°C° 0.9 mm 6 mps 731 mmHg 88%

    Tomorrow, 23 November, Thursday

    Time Temperature Precipitation Wind Pressure Humidity
    00:00 +10°C° 0.9 mm 6 mps 731 mmHg 87%
    01:00 +9°C° 0.3 mm 5 mps 731 mmHg 87%
    02:00 +9°C° 0.3 mm 5 mps 731 mmHg 87%
    03:00 +8°C° 0.3 mm 4 mps 731 mmHg 87%
    04:00 +8°C° 0.3 mm 6 mps 731 mmHg 83%
    05:00 +6°C° 0.3 mm 8 mps 732 mmHg 80%
    06:00 +6°C° 0.3 mm 10 mps 732 mmHg 76%
    07:00 +6°C° 0 mm 10 mps 733 mmHg 75%
    08:00 +4°C° 0 mm 11 mps 733 mmHg 74%
    09:00 +4°C° 0 mm 12 mps 734 mmHg 72%
    10:00 +5°C° 0 mm 12 mps 735 mmHg 71%
    11:00 +5°C° 0 mm 13 mps 736 mmHg 69%
    12:00 +5°C° 0 mm 13 mps 738 mmHg 68%
    13:00 +5°C° 0 mm 12 mps 739 mmHg 68%
    14:00 +4°C° 0 mm 12 mps 741 mmHg 68%
    15:00 +4°C° 0 mm 11 mps 743 mmHg 67%
    16:00 +3°C° 0 mm 10 mps 744 mmHg 69%
    17:00 +3°C° 0 mm 9 mps 746 mmHg 70%
    18:00 +2°C° 0 mm 8 mps 747 mmHg 71%
    19:00 +2°C° 0 mm 8 mps 747 mmHg 72%
    20:00 +2°C° 0 mm 8 mps 748 mmHg 72%
    21:00 +3°C° 0 mm 7 mps 749 mmHg 72%
    22:00 +3°C° 0 mm 7 mps 749 mmHg 73%
    23:00 +2°C° 0 mm 6 mps 749 mmHg 74%

    Day after tomorrow, 24 November, Friday

    Time Temperature Precipitation Wind Pressure Humidity
    00:00 +2°C° 0 mm 5 mps 750 mmHg 75%
    01:00 +2°C° 0 mm 5 mps 750 mmHg 77%
    02:00 +2°C° 0 mm 5 mps 750 mmHg 78%
    03:00 +1°C° 0 mm 4 mps 750 mmHg 79%
    04:00 +1°C° 0 mm 4 mps 751 mmHg 79%
    05:00 +1°C° 0 mm 5 mps 751 mmHg 79%
    06:00 +1°C° 0 mm 5 mps 751 mmHg 79%
    07:00 +1°C° 0 mm 5 mps 752 mmHg 78%
    08:00 +1°C° 0 mm 5 mps 752 mmHg 78%
    09:00 +1°C° 0 mm 5 mps 752 mmHg 78%
    10:00 +2°C° 0 mm 5 mps 753 mmHg 74%
    11:00 +3°C° 0 mm 5 mps 753 mmHg 70%
    12:00 +5°C° 0 mm 5 mps 753 mmHg 66%
    13:00 +3°C° 0 mm 5 mps 753 mmHg 67%
    14:00 +3°C° 0 mm 5 mps 753 mmHg 69%
    15:00 +3°C° 0 mm 5 mps 753 mmHg 70%
    16:00 +2°C° 0 mm 5 mps 754 mmHg 72%
    17:00 +1°C° 0 mm 5 mps 754 mmHg 75%
    18:00 +1°C° 0 mm 5 mps 754 mmHg 77%
    19:00 +1°C° 0 mm 5 mps 754 mmHg 75%
    20:00 0°C° 0 mm 5 mps 754 mmHg 73%
    21:00 0°C° 0 mm 5 mps 754 mmHg 71%
    22:00 0°C° 0 mm 5 mps 754 mmHg 72%
    23:00 0°C° 0 mm 5 mps 754 mmHg 72%

    25 November, Saturday

    Time Temperature Precipitation Wind Pressure Humidity
    00:00 0°C° 0 mm 5 mps 754 mmHg 72%
    01:00 0°C° 0 mm 5 mps 753 mmHg 73%
    02:00 0°C° 0 mm 5 mps 753 mmHg 74%
    03:00 0°C° 0 mm 5 mps 753 mmHg 75%
    04:00 -1°C° 0 mm 6 mps 753 mmHg 75%
    05:00 -1°C° 0 mm 6 mps 753 mmHg 75%
    06:00 -1°C° 0 mm 6 mps 752 mmHg 75%
    07:00 -1°C° 0 mm 6 mps 753 mmHg 74%
    08:00 -1°C° 0 mm 6 mps 753 mmHg 73%
    09:00 0°C° 0 mm 7 mps 753 mmHg 73%
    10:00 0°C° 0 mm 7 mps 753 mmHg 68%
    11:00 +2°C° 0 mm 7 mps 753 mmHg 63%
    12:00 +3°C° 0 mm 7 mps 754 mmHg 58%
    13:00 +2°C° 0 mm 8 mps 754 mmHg 61%
    14:00 +2°C° 0 mm 8 mps 754 mmHg 63%
    15:00 +1°C° 0 mm 8 mps 754 mmHg 66%
    16:00 +2°C° 0.2 mm 9 mps 754 mmHg 68%
    17:00 +2°C° 0.2 mm 10 mps 754 mmHg 69%
    18:00 +2°C° 0.2 mm 11 mps 754 mmHg 71%
    19:00 +2°C° 0.1 mm 11 mps 754 mmHg 74%
    20:00 +2°C° 0.1 mm 10 mps 754 mmHg 77%
    21:00 +2°C° 0.1 mm 9 mps 754 mmHg 80%
    22:00 +2°C° 0 mm 10 mps 755 mmHg 78%
    23:00 +2°C° 0 mm 10 mps 755 mmHg 76%

    26 November, Sunday

    Time Temperature Precipitation Wind Pressure Humidity
    00:00 +2°C° 0 mm 10 mps 756 mmHg 75%
    01:00 +1°C° 0 mm 10 mps 756 mmHg 74%
    02:00 +1°C° 0 mm 10 mps 757 mmHg 74%
    03:00 +1°C° 0 mm 9 mps 757 mmHg 74%
    04:00 0°C° 0 mm 9 mps 758 mmHg 73%
    05:00 0°C° 0 mm 9 mps 758 mmHg 73%
    06:00 0°C° 0 mm 9 mps 758 mmHg 72%
    07:00 0°C° 0 mm 9 mps 759 mmHg 71%
    08:00 0°C° 0 mm 9 mps 759 mmHg 70%
    09:00 0°C° 0 mm 9 mps 759 mmHg 69%
    10:00 +1°C° 0 mm 9 mps 760 mmHg 66%
    11:00 +1°C° 0 mm 9 mps 760 mmHg 63%
    12:00 +2°C° 0 mm 9 mps 760 mmHg 61%
    13:00 +2°C° 0 mm 9 mps 760 mmHg 62%
    14:00 +2°C° 0 mm 9 mps 760 mmHg 64%
    15:00 +1°C° 0 mm 8 mps 760 mmHg 65%
    16:00 +1°C° 0 mm 8 mps 761 mmHg 67%
    17:00 0°C° 0 mm 9 mps 761 mmHg 69%
    18:00 0°C° 0 mm 9 mps 761 mmHg 71%
    19:00 0°C° 0 mm 8 mps 761 mmHg 72%
    20:00 0°C° 0 mm 8 mps 762 mmHg 72%
    21:00 -1°C° 0 mm 7 mps 762 mmHg 72%
    22:00 -1°C° 0 mm 7 mps 762 mmHg 73%
    23:00 -1°C° 0 mm 6 mps 761 mmHg 74%

    27 November, Monday

    Time Temperature Precipitation Wind Pressure Humidity
    00:00 -1°C° 0 mm 6 mps 761 mmHg 75%
    01:00 0°C° 0 mm 5 mps 761 mmHg 78%
    02:00 +1°C° 0 mm 5 mps 760 mmHg 80%
    03:00 +1°C° 0 mm 4 mps 760 mmHg 82%
    04:00 +2°C° 0.3 mm 5 mps 759 mmHg 83%
    05:00 +2°C° 0.3 mm 6 mps 758 mmHg 84%
    06:00 +3°C° 0.3 mm 6 mps 756 mmHg 86%
    07:00 +3°C° 0.4 mm 7 mps 755 mmHg 86%
    08:00 +4°C° 0.4 mm 7 mps 754 mmHg 86%
    09:00 +4°C° 0.4 mm 8 mps 753 mmHg 87%
    10:00 +4°C° 0.4 mm 7 mps 753 mmHg 85%
    11:00 +4°C° 0.4 mm 6 mps 752 mmHg 83%
    12:00 +4°C° 0.4 mm 6 mps 752 mmHg 81%
    13:00 +3°C° 0.2 mm 5 mps 751 mmHg 81%
    14:00 +4°C° 0.2 mm 4 mps 751 mmHg 81%
    15:00 +3°C° 0.2 mm 4 mps 750 mmHg 81%
    16:00 +3°C° 0 mm 4 mps 750 mmHg 81%
    17:00 +3°C° 0 mm 4 mps 749 mmHg 82%
    18:00 +1°C° 0 mm 4 mps 749 mmHg 83%
    19:00 +1°C° 0 mm 4 mps 749 mmHg 84%
    20:00 +1°C° 0 mm 4 mps 748 mmHg 84%
    21:00 0°C° 0 mm 4 mps 748 mmHg 85%
    22:00 0°C° 0 mm 4 mps 748 mmHg 86%
    23:00 0°C° 0 mm 5 mps 747 mmHg 86%
    Show more